Theta_e
300 300 300 300 299 299 299 299 299 299 299 299 299 299 299 299 300 300 300 300 303 305 306 307 307 307 304 302 302 303 302 303 303 303 304 313 308 312 311 310 316 323 324 328 328 329 329
300 300 299 299 299 299 299 299 299 299 299 299 299 300 299 300 299 299 300 303 305 306 306 306 306 307 305 303 304 306 305 305 305 306 304 311 314 310 312 310 313 314 316 317 323 325 324
299 299 299 299 299 299 299 299 299 299 299 300 300 300 299 299 299 299 300 304 305 305 307 307 306 305 306 304 304 307 309 309 309 307 305 306 310 312 311 311 313 313 313 312 313 315 316
299 299 299 299 299 299 299 299 299 299 299 300 300 300 300 300 299 300 300 304 305 305 306 307 305 306 305 304 304 307 306 308 308 307 308 304 309 306 311 312 312 314 313 314 315 313 315
298 298 298 298 298 298 299 299 299 300 300 300 300 300 300 300 300 301 302 303 304 304 304 308 305 308 305 306 308 308 307 307 307 308 305 304 307 307 308 309 310 311 314 313 315 314 315
297 297 297 297 298 299 299 299 300 300 300 300 300 300 300 300 300 302 303 304 303 305 306 305 306 307 306 307 307 307 308 306 309 307 306 305 306 305 304 308 312 313 313 316 316 315 315
296 297 297 298 299 299 299 300 300 300 300 300 300 300 300 300 300 303 304 305 306 306 305 305 306 305 306 307 307 307 306 306 308 307 306 306 304 305 308 309 309 309 312 313 314 315 314
297 298 298 299 298 298 299 300 301 301 301 300 300 300 300 301 302 304 305 306 307 306 305 305 306 306 307 307 307 307 306 306 307 306 304 304 305 306 308 307 308 308 309 310 311 312 313
297 297 298 298 298 298 298 299 300 301 301 300 300 300 300 303 302 304 305 306 306 307 304 305 306 307 307 307 307 307 307 306 306 306 305 304 305 307 307 307 308 308 309 310 311 312 312
295 295 295 295 296 296 297 298 299 301 301 301 301 300 300 304 304 305 306 307 307 307 301 304 307 307 306 306 307 308 309 307 306 305 304 304 304 305 306 307 307 306 308 310 312 313 313
300 298 297 297 296 296 296 297 298 300 301 301 301 301 301 305 307 307 307 307 307 306 301 306 307 306 306 306 306 308 309 308 306 306 306 304 305 304 304 305 306 307 308 308 309 308 309
299 300 302 303 304 305 304 298 297 299 301 302 303 304 302 306 307 307 307 307 306 302 301 306 306 306 306 305 306 308 308 309 309 307 306 305 306 305 305 305 305 307 308 308 309 308 310
304 300 299 301 305 305 306 307 298 297 301 302 305 305 303 308 307 307 307 307 301 301 304 307 306 306 306 305 305 308 307 309 310 311 310 307 306 306 306 306 306 305 304 307 309 310 310
307 306 305 305 306 307 307 307 307 297 299 302 306 307 307 308 308 307 306 300 303 305 306 306 306 306 305 304 305 307 306 310 310 311 311 312 309 309 310 306 306 305 304 306 312 311 310
308 308 308 308 307 307 307 307 308 304 297 302 306 309 309 308 307 307 306 300 301 304 307 307 306 307 305 305 305 305 305 308 309 309 311 312 312 310 310 310 308 307 305 306 305 307 307
307 307 307 307 307 308 308 307 307 308 300 300 305 310 309 308 307 307 302 306 304 305 306 306 307 306 306 305 305 304 305 308 309 309 307 308 309 310 310 309 310 308 306 306 303 307 311
307 307 307 307 307 307 307 307 307 307 307 299 304 309 309 308 308 306 300 303 305 306 307 307 307 307 306 306 306 306 306 308 309 308 307 307 308 308 308 308 306 309 307 307 304 305 311
309 308 308 307 307 307 307 307 307 307 306 301 305 305 308 308 304 299 299 304 305 306 307 308 307 307 306 306 306 306 307 308 308 307 307 308 308 309 309 307 307 307 308 307 307 308 306
309 308 308 308 304 306 307 307 306 307 306 300 306 306 307 305 298 296 301 304 305 307 307 308 308 307 306 306 307 307 307 307 307 307 308 307 306 309 307 309 309 309 309 307 309 308 310
309 308 309 309 309 303 306 306 307 307 306 302 305 301 305 305 303 302 304 306 306 307 307 307 306 306 307 308 307 308 307 307 307 308 309 308 305 306 305 307 308 309 309 310 312 310 308
309 309 310 310 310 307 301 305 306 307 306 302 302 302 304 299 300 300 303 305 307 308 308 306 307 307 309 310 308 308 307 306 307 307 308 307 309 307 308 308 308 308 309 309 310 311 313
307 308 310 310 310 309 301 300 302 307 306 301 298 298 299 301 300 302 304 305 307 307 306 306 307 307 308 309 308 308 308 308 309 307 307 305 310 309 309 308 309 310 310 310 310 310 311
308 310 310 309 308 308 301 298 300 304 304 303 300 297 300 300 299 300 301 305 305 305 307 306 307 307 308 308 307 307 307 307 307 309 308 309 307 307 307 308 309 309 309 309 309 310 310
309 310 308 308 307 306 301 296 298 304 304 303 303 300 300 300 298 300 302 302 302 304 305 306 306 307 307 307 306 306 305 305 306 307 308 311 310 308 305 307 307 307 311 315 314 311 310
309 309 308 308 307 302 297 294 297 303 304 304 303 302 299 302 300 300 302 304 303 304 306 306 306 306 307 304 305 308 308 312 312 305 308 308 310 309 308 305 309 310 313 314 315 312 310
308 308 308 308 306 297 294 294 297 302 304 304 303 303 299 300 301 302 300 300 300 305 306 306 306 307 305 299 301 308 312 313 313 312 306 308 309 309 310 310 311 316 313 311 314 315 319
308 308 308 308 305 297 295 293 296 299 303 303 303 303 301 300 301 302 302 301 303 304 305 306 306 306 304 301 303 306 307 310 314 314 313 312 311 310 310 310 310 312 310 308 318 315 319
308 307 307 305 302 296 293 293 298 299 300 303 303 303 303 301 302 302 302 301 301 303 305 305 306 303 303 305 306 306 307 309 311 311 310 312 311 312 312 312 312 307 307 314 315 316 319
307 306 302 294 292 293 296 293 294 299 301 301 302 302 303 302 302 303 302 302 302 302 303 304 307 306 306 305 303 307 308 309 310 313 307 311 307 310 310 311 306 302 302 305 308 307 318
Wind_Speed
17 17 18 18 18 19 19 18 18 17 17 17 17 18 19 19 20 20 18 18 18 19 21 22 23 23 21 12 16 15 9 17 19 19 12 9 23 16 6 5 9 13 6 16 23 17 16
17 17 17 17 17 18 19 18 18 18 17 16 16 17 18 19 18 17 15 13 15 20 22 24 24 18 9 7 17 26 27 23 20 20 11 6 7 20 8 7 16 1 9 16 14 17 12
16 17 17 18 18 20 20 20 19 19 20 21 21 21 22 23 22 20 17 15 16 21 21 18 20 20 16 27 22 21 17 16 17 20 23 15 14 17 4 4 14 10 5 3 7 6 8
18 18 18 19 20 21 22 23 23 23 24 23 23 23 23 23 21 19 14 15 18 21 19 19 27 20 14 18 24 13 25 26 25 27 20 20 12 12 16 10 4 5 5 12 14 10 8
17 18 18 19 20 21 21 22 23 23 24 24 24 24 23 24 22 21 18 19 20 27 21 19 18 9 13 21 24 27 23 23 27 25 17 15 14 11 7 5 4 4 14 6 4 9 7
18 18 18 19 20 21 22 23 24 24 25 25 24 23 22 22 19 19 17 20 21 10 12 14 6 6 10 23 28 25 19 9 14 26 12 10 10 4 3 7 16 6 3 2 4 7 15
19 19 19 20 21 22 23 24 24 25 25 25 23 21 20 19 15 16 18 21 22 6 23 9 18 18 27 26 28 20 16 7 7 7 3 5 4 13 14 9 3 4 3 3 3 1 4
20 20 21 21 22 24 25 26 26 24 24 23 22 21 20 15 13 9 13 8 10 11 13 13 14 18 20 18 16 18 14 6 6 4 4 5 14 5 1 7 9 7 0 3 5 8 4
21 21 21 21 22 23 25 27 27 26 25 23 22 22 18 12 9 6 11 7 13 18 4 12 13 13 17 21 14 10 8 6 1 2 5 6 7 6 5 3 4 4 4 3 6 7 13
22 23 23 24 24 25 26 27 27 26 25 25 24 21 16 10 5 12 4 14 19 7 3 6 6 5 20 21 5 5 7 4 1 6 4 5 7 4 4 6 9 7 4 2 2 1 5
23 24 25 25 26 27 27 27 27 27 25 25 23 18 12 7 10 11 13 17 11 3 4 13 5 11 32 7 18 5 13 4 7 13 3 7 2 4 5 6 6 7 9 9 8 7 4
23 24 25 26 28 29 30 30 28 29 27 27 25 18 7 3 9 13 18 18 3 5 4 7 10 16 12 10 16 8 9 4 8 6 6 11 5 3 5 5 9 5 5 4 2 3 4
24 24 25 26 27 29 31 32 30 29 29 27 21 11 4 5 9 14 19 3 4 4 4 7 9 16 14 6 8 5 11 5 2 3 4 4 14 10 6 5 4 5 5 2 1 2 8
23 24 25 26 27 29 31 33 33 31 29 27 15 6 4 6 9 15 16 4 5 2 5 6 10 15 4 8 6 6 9 3 4 3 2 3 2 5 3 8 7 6 7 4 6 5 5
23 24 25 27 28 29 30 32 33 31 29 26 13 4 5 8 10 14 9 5 5 4 4 7 12 3 4 6 3 6 3 3 3 4 3 3 4 4 2 2 5 3 4 7 2 3 1
24 25 26 27 27 29 30 31 32 32 29 26 14 3 4 6 10 12 5 2 3 5 6 6 3 4 5 10 6 5 4 3 3 1 3 4 4 2 3 3 9 4 3 2 1 4 5
25 26 27 27 28 29 30 29 31 33 30 26 12 1 5 5 8 5 3 4 5 9 9 3 6 8 9 7 4 4 6 7 2 2 0 1 1 5 4 4 6 3 3 2 3 5 3
26 27 28 29 29 29 29 29 28 31 33 28 8 2 7 5 4 2 0 4 7 9 6 5 4 5 5 3 5 4 6 3 1 1 5 2 1 3 7 6 4 3 3 5 4 6 4
25 27 29 32 31 28 28 28 27 27 30 27 11 4 4 9 2 3 5 5 5 4 7 3 4 4 1 3 5 5 5 7 4 4 4 1 1 3 4 2 3 0 4 4 2 2 6
24 26 29 32 31 30 27 28 27 24 24 19 8 4 4 5 3 3 5 5 4 8 8 4 5 5 3 7 8 6 6 6 3 6 9 2 2 5 4 2 1 3 7 8 3 5 5
23 26 27 30 31 30 29 27 26 22 20 12 7 2 2 4 3 5 4 5 9 6 3 4 4 4 8 7 13 14 11 7 9 7 1 4 6 5 8 8 9 10 14 13 15 10 7
24 26 28 30 31 30 29 26 23 23 18 7 6 5 4 8 14 4 4 4 7 6 5 11 7 15 14 13 14 21 18 14 11 4 5 6 4 2 8 10 11 13 15 17 18 18 15
25 26 28 28 30 29 29 26 21 17 18 6 9 3 3 6 5 2 4 4 9 16 10 11 15 17 15 16 18 29 33 32 18 7 7 5 4 3 4 4 5 9 15 18 16 13 12
25 26 26 29 30 29 28 25 19 12 14 13 11 8 2 4 3 4 8 16 17 11 15 21 24 9 15 35 40 26 22 20 18 16 14 5 5 4 4 2 4 6 9 7 15 16 18
25 26 29 32 32 29 26 22 18 10 10 12 13 7 3 4 8 13 8 7 16 18 15 16 26 25 28 16 5 6 3 3 3 3 13 15 6 3 3 4 9 11 1 4 4 7 11
27 28 33 35 32 28 26 22 17 10 10 12 13 12 7 6 5 12 14 15 6 6 5 9 26 22 9 3 3 4 3 4 3 4 4 10 11 7 3 3 4 1 2 10 4 7 4
29 31 34 35 30 25 25 23 18 13 11 10 13 16 9 7 15 8 8 6 7 5 4 9 12 7 10 4 3 2 4 6 4 5 3 1 4 12 8 5 6 1 3 9 6 3 8
31 34 35 32 29 25 25 22 18 16 11 11 15 16 15 9 28 23 13 18 15 11 3 8 10 4 4 5 3 3 2 3 4 3 3 2 2 3 4 5 8 11 10 7 3 10 11
33 33 32 30 27 21 26 23 18 13 13 11 16 15 16 21 31 41 42 34 36 31 17 5 4 5 2 2 2 3 3 3 5 4 1 2 2 2 3 2 7 23 20 29 27 21 10
Wind_Direction
33 30 27 23 19 17 12 10 6 3 0 356 353 351 348 345 341 340 339 339 341 338 331 329 327 322 328 315 292 329 302 289 289 302 298 270 214 221 198 204 210 235 215 215 231 237 245
20 19 17 15 11 8 6 3 0 357 356 353 349 349 347 346 347 348 344 343 344 331 327 326 327 323 328 281 326 321 307 289 285 299 276 244 217 223 282 211 204 51 226 239 236 245 241
15 13 11 10 6 3 0 359 358 357 356 355 353 352 350 349 349 350 345 340 348 338 336 334 339 330 295 287 324 343 351 3 332 301 275 234 228 234 302 288 263 263 279 265 221 216 236
11 10 8 7 8 6 4 2 1 360 358 355 352 350 349 348 346 348 347 331 339 333 329 325 332 322 285 336 331 328 328 319 343 338 287 241 222 264 233 271 291 190 174 237 232 185 217
17 16 14 13 10 9 7 4 2 358 354 353 351 351 351 348 344 344 342 334 330 320 311 304 326 311 287 330 331 334 327 316 315 333 309 233 233 217 176 200 349 251 235 214 249 206 182
15 13 10 9 9 8 6 3 359 356 353 352 349 349 349 345 336 335 335 332 331 329 323 322 321 317 309 321 331 330 322 319 314 321 316 231 224 184 169 169 215 202 170 159 190 200 198
17 14 12 11 9 7 5 3 360 355 354 354 349 346 347 344 331 328 332 346 11 350 328 283 289 279 291 320 329 348 329 264 304 339 280 238 196 215 214 234 254 44 97 63 343 231 353
19 16 13 10 6 4 4 4 3 357 354 354 348 344 345 346 325 324 340 23 5 332 301 307 286 283 312 312 307 340 353 232 129 264 319 326 236 246 114 195 241 271 234 237 276 267 231
18 15 11 7 3 1 0 1 2 360 354 353 347 339 343 350 331 325 348 9 332 328 260 295 313 298 333 326 305 325 3 351 106 217 242 208 266 221 175 211 197 189 201 187 222 291 285
18 14 11 9 5 1 357 356 358 358 355 350 345 333 339 357 1 330 340 338 326 310 41 288 329 344 340 337 313 302 353 258 88 260 233 207 264 192 190 223 224 238 180 270 329 171 257
16 14 12 11 9 5 1 355 355 355 352 348 343 329 331 345 349 354 340 337 329 159 348 319 331 331 336 333 313 314 328 255 214 226 307 247 225 247 222 205 177 236 177 207 221 257 283
12 12 10 8 7 5 3 359 355 354 350 348 343 327 319 332 352 347 339 336 132 48 281 329 332 327 343 309 328 309 302 330 279 243 222 249 270 201 230 261 207 202 183 157 82 137 250
8 7 4 4 5 3 2 0 357 354 350 351 349 351 96 24 360 352 341 1 43 100 325 324 320 325 320 298 320 335 331 333 46 314 32 256 238 238 243 280 244 184 115 123 107 197 229
7 8 3 2 2 1 359 357 357 356 352 352 355 23 70 22 356 354 348 53 75 251 266 293 307 312 296 4 309 313 320 347 292 288 139 275 283 175 222 188 196 192 167 168 174 192 213
2 4 359 359 359 359 360 358 356 357 355 350 1 73 62 25 0 354 347 51 194 218 248 302 315 291 288 317 283 333 295 279 326 4 303 204 269 321 3 198 154 178 177 210 356 289 88
359 358 353 355 356 357 358 358 358 357 357 351 354 129 47 16 359 349 59 275 231 220 293 296 265 239 293 316 328 353 291 243 326 222 144 313 305 199 148 226 232 175 198 132 308 208 234
357 356 354 352 351 351 353 357 357 357 358 355 353 108 3 335 332 360 114 249 279 277 308 277 257 274 285 299 277 284 273 306 53 314 205 326 75 304 338 210 193 170 261 230 187 182 209
355 355 353 349 348 348 349 353 357 355 357 360 3 39 16 345 30 53 17 294 290 277 316 281 251 256 250 312 276 264 241 230 199 343 315 19 151 264 246 264 5 351 269 201 192 251 258
352 352 352 352 353 346 347 349 356 357 357 352 349 312 336 355 75 324 305 284 269 296 306 325 285 251 264 256 283 258 290 304 304 180 220 186 276 312 304 11 40 311 289 234 206 126 222
348 349 351 346 347 350 345 346 350 359 357 355 355 358 340 41 73 101 319 289 281 268 280 326 265 266 344 285 241 278 276 296 311 222 254 185 214 219 229 275 114 293 293 296 241 230 244
337 338 337 340 343 344 345 342 342 357 3 5 9 21 4 304 317 316 258 267 287 315 245 305 281 260 305 294 298 266 258 266 262 273 319 176 224 231 254 279 284 263 267 268 268 257 251
327 330 334 335 338 339 341 342 340 344 9 7 4 356 333 286 288 266 261 255 295 310 306 307 260 301 298 289 279 290 281 266 267 246 180 189 233 205 289 273 253 264 260 257 253 255 256
329 331 334 336 339 339 339 339 340 346 356 0 344 295 275 281 292 335 250 259 294 315 290 265 296 298 295 290 288 278 271 265 250 219 205 192 192 150 252 245 322 277 251 255 247 228 219
327 330 334 336 335 336 334 334 337 339 333 341 341 326 282 274 260 237 290 288 287 286 282 296 293 277 281 304 302 289 263 249 247 239 205 182 171 176 251 326 248 245 313 286 249 222 215
325 325 329 332 331 332 331 332 330 324 316 315 320 303 250 272 251 295 298 280 296 290 282 274 287 304 310 315 316 321 341 245 214 235 213 207 171 204 214 200 287 295 87 4 332 263 217
320 322 326 326 327 332 333 330 325 317 307 298 302 297 247 279 242 300 303 288 284 298 295 296 314 321 326 13 332 314 315 293 321 317 70 207 205 198 174 239 252 183 83 7 328 269 178
321 322 325 324 327 332 333 329 328 315 298 289 287 295 256 256 279 292 283 278 299 287 281 299 333 329 8 354 340 319 295 330 312 312 339 177 179 214 211 243 281 111 8 1 217 252 309
320 322 323 326 332 332 331 330 326 325 305 289 288 292 273 260 287 278 261 268 274 245 258 312 331 345 348 359 338 326 292 312 289 284 340 306 274 186 205 218 250 15 327 200 353 319 308
319 321 325 328 326 328 327 328 320 308 314 300 287 292 293 256 273 292 290 276 254 249 265 283 276 293 245 322 325 300 297 286 302 327 282 316 256 294 234 278 313 285 237 267 278 278 309